Wind_Speed
81 85 88 91 93 96 98 98 98 100 101 97 98 102 95 78 68 68 67 69 64 56 59 64 70 73 71 71 70 69 69 67 67 65 61 58 55 53 52 52 52 53 52 52 52 49 46 43 43 42 40 41 42 39 36 33 32 30 27 25 24 26 26 27 26 24 24 22 21 21 20 19 18 16 15 14 13 13 12 12 11 11 10 10 10 11 11 11
78 84 86 90 92 95 98 98 99 102 102 98 97 102 102 89 76 69 65 65 62 53 58 64 67 72 70 70 71 70 70 69 68 67 62 58 58 56 54 52 51 52 51 52 52 51 48 44 44 45 43 43 42 41 39 36 34 32 31 27 23 25 28 28 26 25 25 24 23 23 22 21 20 17 16 15 14 13 13 12 12 12 11 11 11 11 12 12
75 82 85 89 91 93 97 98 99 103 103 99 97 100 106 100 87 75 65 62 58 50 55 62 63 66 67 66 70 72 71 71 71 67 62 61 59 57 55 52 51 50 49 50 51 51 50 48 48 47 47 46 44 43 41 39 36 34 33 30 27 26 28 28 25 25 25 25 24 24 23 22 20 19 17 15 14 13 13 13 14 13 12 11 11 11 12 12
73 80 85 88 91 93 95 98 99 103 104 100 96 99 106 107 99 86 72 63 58 51 50 59 60 59 62 62 66 73 73 73 73 66 62 62 60 58 56 52 51 49 48 49 50 51 52 52 52 50 49 48 46 45 42 40 38 36 34 32 32 32 28 26 25 26 26 26 25 25 24 23 22 20 18 16 15 14 14 15 14 14 13 12 12 11 12 12
71 78 84 87 90 92 94 97 99 102 105 101 95 98 102 104 103 97 84 70 62 56 49 54 60 56 56 59 62 70 75 76 73 65 62 62 60 59 57 53 51 50 49 48 49 50 51 53 53 52 51 49 47 45 42 40 40 38 34 33 36 37 32 27 26 26 27 27 26 26 26 24 24 22 19 17 16 16 15 15 15 15 15 14 13 13 12 12
70 76 83 87 89 92 93 95 99 102 105 102 96 97 98 98 102 102 93 79 68 65 57 53 59 58 54 57 61 67 74 77 72 64 63 63 61 60 58 55 51 49 50 49 48 49 51 52 53 52 50 48 47 44 41 41 42 39 35 35 36 38 35 31 30 28 26 27 27 28 27 25 25 24 21 19 18 17 17 16 16 15 15 15 14 13 12 12
70 74 81 86 89 92 93 94 97 101 105 103 97 96 95 94 98 102 98 88 77 73 68 57 55 59 56 56 62 68 72 75 72 64 63 64 61 61 59 57 54 50 50 49 48 49 50 51 51 50 48 47 46 42 41 41 43 41 37 36 37 38 37 35 34 31 27 26 28 29 28 26 26 25 22 21 19 18 18 17 16 16 15 15 14 13 13 12
69 72 79 86 88 91 93 94 96 99 104 103 99 96 93 92 94 98 99 97 88 81 77 65 56 58 59 57 61 71 75 73 71 65 64 65 62 62 60 58 56 52 51 49 48 47 48 49 49 48 46 45 43 41 41 43 44 41 37 37 38 38 37 37 36 33 30 27 28 30 29 28 28 26 23 22 21 20 19 18 17 16 16 16 15 14 14 13
68 72 77 84 88 90 93 94 95 97 102 103 100 96 93 91 91 92 95 98 95 89 83 71 61 59 59 59 61 71 76 71 70 67 63 64 63 62 61 59 57 54 52 50 48 48 48 48 47 46 43 41 41 41 42 44 43 39 37 39 40 39 39 38 37 35 32 30 30 31 31 30 29 27 24 24 23 21 20 19 19 18 17 17 15 14 14 14
66 70 75 82 88 90 92 94 95 96 100 102 100 97 93 91 89 88 90 94 95 91 87 74 60 59 59 61 65 69 70 66 68 66 63 64 63 63 61 59 57 54 53 52 49 48 47 47 46 44 41 40 41 42 43 44 41 38 39 41 41 41 41 39 38 36 34 33 32 33 33 31 31 28 24 25 25 23 22 21 21 20 19 18 16 15 15 15
64 69 73 80 86 90 91 93 95 95 98 101 100 97 93 90 89 87 87 90 92 89 88 77 60 56 60 62 66 69 64 61 65 65 64 66 64 63 61 58 57 55 54 53 50 48 47 46 45 44 42 41 41 42 43 42 40 40 41 41 42 42 41 39 37 36 35 34 34 35 35 33 32 26 23 27 28 26 25 24 23 21 20 19 17 16 15 15
62 67 72 77 85 89 91 93 94 94 96 99 99 97 93 90 89 87 85 86 90 86 86 84 65 52 57 62 62 63 60 60 64 63 62 66 66 63 60 57 55 53 53 53 51 49 47 46 45 44 43 40 39 40 42 41 40 41 40 40 41 41 41 38 36 35 34 35 36 38 38 35 29 22 23 31 31 29 28 26 24 23 21 20 19 18 16 16
60 64 70 76 83 89 91 92 94 95 95 97 98 96 92 90 89 88 85 84 87 84 81 86 76 56 54 60 59 56 55 57 63 63 62 65 68 66 63 60 57 55 53 52 51 51 49 48 46 44 43 39 38 41 41 40 41 40 39 39 40 40 39 36 35 34 34 37 37 39 39 31 25 23 28 34 33 31 29 27 26 25 23 22 21 19 18 17
58 62 68 74 80 87 91 91 93 95 94 95 97 95 91 89 89 88 85 83 84 81 77 82 86 72 59 55 55 55 53 56 62 64 63 65 69 69 66 64 61 58 55 51 51 53 51 50 48 47 45 41 40 42 41 41 41 39 38 39 40 38 34 33 33 32 34 36 35 38 35 26 24 28 31 35 35 33 30 28 28 27 25 24 22 21 20 19
56 60 65 72 79 85 90 91 92 94 94 94 95 94 91 88 88 87 86 84 82 81 76 79 86 86 77 61 55 56 55 59 63 63 63 64 68 70 68 66 63 60 57 54 53 52 52 52 50 49 47 44 43 44 43 43 41 39 39 40 39 33 29 32 33 32 33 34 33 35 30 24 28 32 32 35 36 33 31 29 30 29 27 25 24 23 21 21
54 58 63 70 77 82 88 91 91 93 94 94 94 94 90 88 87 87 87 85 83 82 78 80 84 87 88 76 64 62 59 62 64 62 63 64 67 70 68 67 65 62 59 57 56 53 50 52 52 50 47 45 44 44 43 43 41 40 40 39 35 29 29 31 32 32 31 31 32 32 27 25 31 33 33 36 36 35 33 30 30 30 28 27 25 24 23 22
53 57 61 68 75 80 86 90 91 92 93 93 94 93 91 88 86 86 88 87 85 84 80 81 81 84 89 85 78 67 55 59 65 62 62 62 66 70 69 68 66 64 61 58 58 56 52 52 53 52 48 46 46 46 45 44 43 41 39 38 34 30 30 31 30 30 29 29 28 28 27 25 29 32 34 35 35 36 34 31 30 30 29 28 26 25 23 22
52 56 60 66 72 78 84 88 91 91 92 93 93 93 90 88 87 87 88 89 88 84 81 82 81 84 91 88 85 71 52 54 62 60 59 59 63 69 70 70 67 65 64 61 60 61 59 56 55 54 52 50 49 49 48 45 42 40 39 36 33 30 30 30 29 29 28 27 27 27 25 24 28 32 32 32 32 34 34 32 31 30 29 27 26 25 23 23
52 55 59 64 70 75 81 86 89 90 90 92 92 91 89 87 86 87 90 91 92 88 84 85 87 88 91 89 85 73 57 55 58 60 60 57 61 68 70 71 69 67 66 65 63 63 63 61 59 59 56 52 50 49 47 44 41 41 40 36 32 30 31 29 29 30 30 29 28 26 23 24 30 31 29 30 31 32 33 32 30 29 28 26 26 25 24 24
52 54 58 62 67 72 78 83 86 87 88 90 91 88 84 83 80 84 92 93 93 93 86 83 86 88 87 86 86 77 62 58 62 66 65 61 62 67 71 72 72 71 69 67 65 64 64 65 63 59 55 50 48 48 48 46 46 45 43 38 34 34 34 33 33 34 34 33 29 26 26 27 29 28 26 28 28 29 30 30 28 28 28 27 26 26 26 25
51 54 57 61 64 68 74 80 82 84 87 86 86 86 86 86 83 84 94 95 93 94 89 83 83 85 85 83 86 84 70 60 62 69 69 65 65 68 71 73 75 75 73 70 68 65 66 67 64 58 56 52 47 48 50 50 49 48 45 41 37 38 37 36 38 38 38 36 30 29 30 28 26 26 25 25 23 24 27 28 28 28 28 26 26 26 26 26
51 53 55 58 61 64 69 74 74 74 79 82 83 86 90 92 90 87 89 92 93 93 92 89 83 82 85 85 84 87 83 68 61 66 69 66 65 66 69 71 74 75 75 75 72 70 70 68 62 60 60 58 52 50 52 52 51 50 48 44 42 41 39 40 41 40 40 36 31 32 31 27 27 28 26 22 19 20 23 25 27 27 26 25 25 26 26 26
52 52 53 56 57 59 63 68 67 64 68 76 82 87 91 92 92 90 85 86 90 93 95 93 87 82 84 87 86 87 90 82 67 64 68 68 65 64 66 68 72 75 76 78 76 74 73 68 64 63 63 62 58 55 55 55 52 51 51 48 45 43 42 43 42 41 41 37 33 33 33 29 30 31 26 21 19 20 22 23 24 24 22 22 24 25 25 26
53 51 51 53 54 55 58 59 60 60 63 70 76 82 87 90 92 92 88 87 89 92 95 96 92 86 83 86 89 88 89 90 80 68 65 64 62 63 66 68 71 76 78 77 76 75 72 69 66 66 66 66 63 59 58 57 54 53 52 49 46 45 44 43 43 43 42 40 36 34 35 33 31 30 25 22 23 20 21 22 21 20 20 20 21 22 23 23
52 51 49 51 53 53 53 54 57 59 63 65 69 75 80 83 88 91 89 89 90 90 93 96 95 91 84 81 88 90 88 90 86 77 71 66 61 63 68 71 73 75 77 76 76 76 73 70 68 67 68 66 65 62 60 58 55 54 52 47 45 46 47 45 45 45 44 42 37 35 38 34 30 30 26 25 26 20 19 21 18 18 19 19 18 18 20 20
50 51 49 50 53 52 51 55 59 60 62 63 66 71 75 78 83 87 86 86 89 92 93 96 97 95 88 80 83 89 90 89 82 74 74 73 71 73 72 73 75 75 75 76 77 78 76 73 69 69 68 67 67 65 62 60 57 55 51 44 42 47 50 48 47 46 46 43 37 36 40 36 32 32 29 28 28 22 20 18 16 18 19 17 17 17 19 19
50 50 49 50 51 51 53 56 60 61 62 62 65 67 70 73 76 81 81 80 88 94 93 96 99 96 92 85 81 87 93 93 84 70 62 63 69 75 75 70 71 74 76 77 79 80 78 76 73 71 69 68 69 66 63 62 59 55 51 45 42 47 51 50 48 48 47 44 40 40 43 41 36 33 31 30 28 25 21 17 16 19 19 18 18 18 18 18
49 49 50 51 50 50 53 57 60 61 60 59 62 64 65 67 70 75 75 77 93 101 94 95 100 97 94 92 82 82 90 92 91 80 61 56 64 68 69 68 66 69 75 78 79 79 79 78 75 72 71 70 67 65 63 63 61 57 53 48 44 46 49 50 48 48 47 47 45 42 44 45 38 33 32 32 30 26 21 18 19 21 22 21 19 18 17 17
49 49 50 51 51 51 53 57 58 57 57 57 59 61 62 63 66 68 69 77 94 104 98 95 99 97 95 98 84 71 79 87 92 89 71 64 67 64 61 61 61 65 70 73 76 77 79 78 74 72 72 70 66 66 66 64 63 61 57 53 47 45 48 50 48 46 47 49 48 45 45 47 40 34 34 34 29 24 20 21 24 25 25 23 19 18 18 18
47 49 51 51 52 53 56 59 59 56 56 58 59 60 60 62 65 66 68 77 86 95 101 99 99 99 96 101 90 65 67 81 89 93 87 79 75 70 64 58 59 63 65 68 74 77 78 76 75 74 72 70 69 68 67 65 66 65 63 59 53 49 49 49 47 45 47 51 50 47 45 47 44 38 36 32 26 22 23 25 26 26 25 23 20 20 20 19
46 48 50 53 53 53 55 58 59 58 58 59 59 60 62 62 65 68 72 81 84 88 99 99 98 103 97 100 99 76 63 70 80 91 96 91 86 82 78 71 67 65 65 70 74 76 78 78 78 75 72 72 72 70 67 67 67 66 64 60 56 54 51 48 45 43 47 52 51 48 47 49 46 38 33 29 26 24 24 24 26 27 25 23 22 22 22 21
47 49 50 52 51 51 52 54 55 58 60 61 59 59 64 64 65 69 71 78 84 86 95 98 97 103 99 96 102 92 70 63 70 83 90 92 91 89 88 87 81 73 69 71 74 76 79 80 79 75 74 74 73 72 70 69 68 66 65 61 57 58 56 53 51 49 49 52 51 49 49 50 46 35 29 27 25 26 27 27 27 28 26 24 22 22 22 21
47 49 51 51 50 49 50 51 53 56 60 60 59 60 64 67 68 69 68 72 80 83 92 98 95 99 100 97 101 101 84 67 66 73 78 84 87 84 82 85 86 83 76 69 70 76 79 81 80 77 76 76 75 74 74 73 71 69 68 65 63 63 63 61 61 58 54 53 52 49 47 49 46 39 33 27 23 26 29 29 28 28 27 24 22 22 22 22
46 49 52 50 48 49 51 53 54 56 59 60 61 63 67 69 69 68 67 69 74 78 86 94 94 95 99 98 100 103 95 77 69 68 69 74 81 79 75 76 78 82 83 77 72 75 79 83 85 82 78 78 77 75 73 72 71 70 69 68 68 68 67 65 63 61 57 55 54 51 49 49 46 44 39 30 26 28 28 27 27 27 27 25 23 23 23 22
46 48 48 48 48 48 50 54 55 56 60 63 63 65 69 70 68 67 67 68 71 74 79 87 91 90 93 97 99 103 101 90 79 74 68 68 75 76 74 76 75 75 82 84 77 72 75 81 84 84 80 77 76 74 73 72 71 70 70 71 71 69 66 65 63 61 60 59 58 56 54 51 46 45 42 34 30 31 30 29 29 27 26 26 24 23 23 23
48 48 47 48 49 49 50 53 55 55 58 62 63 64 66 66 66 66 65 65 70 73 74 78 85 85 86 93 100 104 104 99 93 87 78 70 70 70 71 74 75 73 75 79 78 72 71 74 78 82 82 77 73 73 73 74 74 73 73 73 71 69 67 68 66 65 64 65 64 62 59 54 50 48 45 38 34 32 31 31 29 28 28 27 25 23 24 25
50 50 49 50 52 53 54 55 55 56 57 59 63 64 63 61 62 64 64 62 63 70 74 75 80 83 82 87 98 105 105 102 100 96 90 84 76 72 71 72 73 73 71 72 74 71 67 67 73 80 82 78 73 72 70 70 72 74 75 74 71 69 69 69 69 69 68 68 67 65 62 58 55 51 47 42 36 32 32 33 31 30 29 27 25 25 26 27
50 54 54 55 56 59 61 61 60 60 60 62 63 63 63 61 59 59 62 61 58 64 73 75 75 78 79 82 92 103 106 104 101 96 92 92 88 80 75 73 74 72 69 69 72 72 68 67 71 78 83 79 74 73 72 70 71 72 71 71 70 70 70 69 69 69 68 68 68 66 65 62 57 53 49 44 37 33 32 33 33 31 30 29 28 29 29 29
52 59 62 62 62 63 64 65 66 67 67 67 65 62 62 61 59 56 57 59 59 60 67 74 75 72 73 77 85 97 105 105 103 94 86 86 87 83 77 73 74 72 69 70 72 71 71 70 70 74 81 82 77 75 77 75 75 74 71 70 70 69 68 67 67 67 66 67 67 66 67 64 59 55 51 46 40 36 34 34 33 32 31 31 31 32 32 31
53 60 64 63 62 62 61 61 65 70 73 71 67 63 59 59 58 56 55 56 59 61 62 67 74 73 70 70 77 92 103 104 105 98 85 78 75 74 72 70 71 71 69 70 71 70 71 71 71 74 80 84 81 78 79 79 78 78 77 77 76 75 72 69 67 67 67 67 67 68 68 64 60 58 53 48 43 40 37 35 34 34 33 34 34 34 33 33
56 58 61 62 60 60 60 60 61 66 69 69 66 62 60 60 57 56 56 54 55 60 63 63 67 72 73 69 69 84 101 105 105 103 93 84 77 73 69 65 67 71 72 73 74 73 71 67 67 73 80 84 83 79 77 77 78 77 78 79 80 78 76 73 71 71 71 71 69 70 70 66 61 58 54 49 44 41 39 38 37 36 36 36 36 35 34 35
61 59 59 61 62 62 60 60 62 62 63 64 63 60 58 58 57 56 58 58 56 57 62 66 66 66 72 73 67 76 95 104 105 105 100 92 88 83 75 67 64 70 74 75 75 72 68 64 65 70 74 77 79 78 75 75 75 75 75 75 75 75 74 72 71 69 68 68 67 67 70 66 60 57 54 49 45 42 41 41 39 37 36 36 36 36 35 35
64 63 62 62 64 65 60 57 60 61 60 61 62 59 57 54 53 53 55 59 60 58 60 67 69 67 69 75 71 71 86 100 104 105 102 96 92 87 80 71 66 71 77 76 75 75 71 70 71 69 69 73 78 77 75 75 76 78 78 76 73 72 69 67 65 64 63 65 64 65 69 67 61 58 56 52 49 47 46 44 42 39 36 35 36 36 36 36
63 64 64 64 64 66 63 57 55 55 55 55 55 54 54 51 50 50 51 55 59 60 61 63 69 70 68 72 74 69 75 91 101 103 103 101 95 87 81 75 69 73 79 77 74 74 72 71 72 71 72 77 82 82 79 79 80 80 79 78 76 73 69 66 64 63 64 65 65 68 70 68 64 62 60 58 55 52 50 48 45 41 37 35 35 35 35 36
60 61 62 64 64 64 64 59 54 52 51 50 48 47 46 45 46 47 48 51 55 57 60 61 65 71 71 72 75 70 68 78 90 96 99 102 101 92 86 81 73 72 75 76 73 72 72 74 74 74 77 80 82 79 77 79 83 83 81 79 76 74 73 71 69 69 70 69 69 72 71 68 66 65 64 63 60 57 53 49 47 44 40 37 35 35 36 37
58 60 61 63 63 62 61 59 55 52 51 50 48 47 46 43 43 45 45 48 51 53 57 60 62 70 77 77 75 73 69 68 77 86 89 94 99 97 93 88 79 73 72 76 79 78 78 80 79 79 80 78 76 72 68 72 80 84 85 83 79 77 76 74 74 75 74 73 74 75 71 69 68 67 67 65 63 61 56 49 47 46 43 39 37 37 38 40
57 59 59 61 61 60 59 58 56 53 51 50 49 48 48 46 44 45 46 47 49 48 52 58 61 70 81 81 75 73 68 59 66 80 82 83 90 95 96 92 83 77 75 79 83 82 82 83 80 80 80 77 75 75 73 74 75 77 81 85 84 81 78 78 78 78 76 76 77 75 71 71 70 68 68 65 61 59 54 48 46 45 44 42 41 41 42 43
57 56 56 57 57 58 56 54 52 50 49 49 48 47 48 47 46 46 47 49 51 50 50 54 60 70 83 84 76 73 65 51 56 73 79 78 82 88 93 92 85 79 79 81 83 82 83 82 77 77 78 77 77 76 75 75 73 72 75 81 84 83 80 79 78 76 75 77 77 72 70 72 70 66 64 61 58 56 53 49 47 47 47 47 46 46 45 45
54 54 55 54 53 54 53 51 49 48 47 47 46 46 46 46 47 46 47 48 51 54 53 53 57 67 82 88 81 76 68 52 50 65 74 75 77 80 84 88 86 82 82 83 80 79 80 78 74 74 75 76 77 76 74 74 73 71 72 75 78 79 78 77 74 72 72 74 73 69 69 70 67 63 61 59 59 58 56 54 52 52 53 52 51 49 47 46
50 51 53 53 51 50 49 50 49 47 47 46 45 46 46 46 47 46 47 47 48 52 54 53 54 60 75 88 87 80 72 58 50 57 66 70 71 72 76 82 85 85 84 82 79 78 78 75 72 74 75 76 78 76 75 77 74 71 70 71 72 74 74 73 71 69 70 72 70 68 70 70 65 61 62 62 61 61 60 59 57 56 56 55 53 51 48 47
48 48 50 51 50 49 46 46 46 46 46 46 46 46 45 46 46 46 45 45 45 47 50 53 54 56 66 83 89 85 75 63 54 52 57 64 66 65 69 75 81 84 84 83 82 80 80 79 76 76 77 78 77 75 76 78 77 75 75 74 73 72 71 68 65 63 65 67 65 67 71 71 65 61 62 62 61 61 60 60 58 56 55 56 54 52 50 47
50 49 51 51 49 48 46 44 44 44 45 45 45 45 44 45 45 44 44 42 41 41 43 48 54 56 62 75 85 88 80 69 60 53 49 55 58 57 61 68 73 80 82 82 83 83 81 81 81 80 80 78 74 74 75 78 82 84 81 75 73 71 68 65 62 60 61 62 63 65 65 62 59 58 57 58 59 59 58 57 56 55 55 57 57 55 53 49
Wind_Direction
222 221 219 218 218 217 217 217 217 218 220 219 220 221 210 197 193 192 195 200 202 211 211 213 225 225 222 222 222 222 222 223 224 223 220 220 221 220 220 218 218 219 217 217 220 219 218 217 218 219 220 226 231 230 229 228 228 226 221 222 230 236 235 230 223 218 221 222 220 220 218 216 215 211 207 207 208 208 212 211 209 219 222 217 212 201 192 190
222 221 219 217 218 217 217 216 216 218 220 220 219 222 216 203 197 194 192 198 200 209 211 209 220 226 223 223 223 223 223 223 224 223 221 222 222 221 220 218 217 219 217 216 219 221 219 218 219 220 221 224 228 230 230 229 228 226 220 217 223 235 236 231 225 221 221 221 223 222 220 219 216 214 210 208 207 206 210 212 211 216 220 219 218 212 201 193
222 220 219 217 217 217 216 216 215 217 219 220 219 221 220 211 203 197 192 195 198 204 211 209 216 225 224 224 224 223 223 224 223 223 222 223 222 222 222 220 218 219 219 217 218 220 220 219 219 220 221 223 225 228 229 229 229 227 222 217 218 228 236 236 228 223 223 222 224 225 223 223 220 216 214 210 208 206 209 213 213 215 217 217 219 219 211 202
223 220 218 216 217 217 216 216 215 217 219 220 220 220 222 218 211 204 197 196 197 199 208 209 211 221 224 222 225 225 224 224 222 221 223 224 223 223 223 222 220 219 220 219 218 219 219 219 219 219 221 222 224 226 228 230 229 228 224 220 221 224 228 235 233 223 222 222 224 228 227 227 226 221 217 213 210 208 211 216 216 216 217 214 215 219 218 212
224 220 218 216 216 217 216 215 215 216 220 220 220 220 223 223 218 211 205 199 197 199 206 209 207 214 221 219 222 226 225 224 221 220 224 224 225 225 224 223 221 220 220 220 218 219 220 220 220 220 222 223 225 226 228 231 232 230 227 224 225 227 224 226 232 226 220 221 223 228 229 228 228 225 220 216 212 211 213 218 218 218 218 215 213 215 219 219
225 220 217 216 215 216 216 215 215 216 219 221 220 220 223 224 222 217 211 203 200 203 207 211 206 206 216 219 222 225 225 224 220 220 224 224 225 225 225 224 222 220 220 221 220 219 221 222 221 220 221 224 225 227 229 232 234 231 229 227 227 230 227 223 227 227 221 220 222 227 229 229 230 227 223 220 216 214 216 219 220 220 219 218 217 215 216 221
224 221 217 216 214 215 216 215 215 216 219 221 220 220 222 223 224 222 215 207 204 206 209 213 211 204 207 215 222 226 225 223 221 220 223 224 225 225 225 224 223 221 221 222 222 221 222 223 223 222 221 223 225 226 227 231 234 232 229 229 230 230 228 225 226 228 224 223 224 226 227 227 230 228 224 223 220 219 219 220 222 224 223 222 222 220 217 217
223 221 217 216 214 214 215 215 214 215 218 221 220 220 222 222 224 224 220 214 211 212 212 214 218 210 203 207 219 227 224 221 221 219 223 224 224 225 225 225 224 222 221 222 223 222 224 225 226 224 221 222 224 224 225 228 231 231 231 231 232 231 229 227 226 227 224 224 226 227 226 225 228 227 223 223 222 221 221 221 223 225 226 225 223 223 220 218
222 221 217 215 214 213 214 215 214 215 218 221 220 220 221 221 223 225 223 220 218 217 215 215 219 216 209 206 214 226 224 222 223 219 222 224 224 225 225 225 224 222 222 222 223 223 224 226 226 226 223 222 223 223 224 227 228 229 230 232 233 232 230 227 226 226 224 222 225 228 228 226 227 227 224 225 222 221 222 222 223 224 225 226 224 223 222 220
222 220 218 215 214 213 213 215 215 214 216 220 221 219 220 221 222 224 224 222 221 219 217 213 215 216 215 211 212 221 222 223 224 220 221 223 223 225 224 225 224 223 223 223 224 224 225 226 227 226 223 221 222 222 223 225 226 226 228 230 233 233 231 227 225 225 224 223 223 227 230 228 228 225 224 228 224 219 221 222 224 224 226 226 224 223 222 222
221 220 218 214 214 213 212 213 215 214 215 219 221 219 220 220 220 223 223 223 222 221 217 211 209 212 216 216 214 218 220 221 224 220 221 222 223 224 225 226 225 224 223 223 224 224 225 226 226 227 224 221 221 222 224 224 224 225 227 230 233 234 233 229 226 225 224 225 225 227 229 229 228 224 224 231 227 219 218 220 223 224 227 227 224 224 222 223
220 219 217 214 213 213 212 212 214 214 214 217 220 219 219 219 220 221 222 223 222 221 218 211 207 209 215 218 215 216 218 221 225 222 220 221 222 223 223 224 225 224 224 224 224 224 225 225 225 226 225 222 222 223 224 223 223 224 226 229 232 235 233 230 228 227 225 226 227 227 228 227 227 222 225 233 229 221 217 216 219 222 225 226 225 225 224 224
220 218 217 214 212 213 212 212 213 214 214 216 219 219 218 219 219 220 220 221 222 222 220 214 209 208 214 218 213 212 214 219 225 225 221 221 221 221 221 221 221 221 222 223 225 225 224 224 224 224 224 221 220 223 223 222 223 224 225 228 231 232 231 231 231 228 227 226 226 229 228 224 225 221 224 233 232 225 219 216 218 219 221 224 225 225 226 226
219 218 216 214 212 212 212 212 212 213 214 215 218 219 217 217 218 218 219 220 221 221 220 216 212 210 216 219 216 215 212 215 223 224 222 221 221 221 220 220 221 220 218 219 223 225 224 222 223 223 222 219 219 221 221 221 221 222 223 225 229 229 228 231 232 228 227 227 227 231 228 221 225 223 223 232 235 230 223 218 218 218 219 221 223 225 226 227
218 217 215 214 212 211 212 212 211 212 214 214 217 219 217 216 217 217 218 218 220 220 219 218 214 213 215 217 223 226 217 215 220 222 222 221 222 223 221 220 221 220 218 215 217 222 224 223 222 223 222 219 219 219 219 219 219 219 219 222 225 224 222 226 230 227 228 230 229 232 228 220 227 227 224 231 236 234 227 222 220 219 218 219 222 223 224 226
217 216 215 213 212 210 211 211 211 211 213 213 216 219 217 216 216 216 217 217 218 219 218 218 216 216 216 213 218 226 223 220 219 220 222 221 221 223 222 221 220 220 218 216 215 217 221 224 222 222 222 220 221 221 220 220 218 216 217 220 221 217 217 223 228 229 230 231 231 232 226 221 229 230 228 230 235 237 231 225 223 221 219 218 220 223 224 226
217 215 213 212 211 210 210 211 211 211 212 213 215 217 217 215 215 214 216 215 216 218 217 218 218 218 219 214 213 218 221 219 215 217 220 220 221 222 221 221 220 220 218 216 216 215 215 220 222 221 220 220 222 221 220 219 216 215 215 217 216 212 213 219 225 228 230 231 231 230 223 218 227 231 231 230 233 237 236 230 226 224 222 219 220 223 226 228
216 214 212 211 210 209 209 210 211 211 211 212 214 216 217 216 214 213 214 214 214 215 214 217 216 216 219 216 212 216 220 216 212 212 216 218 220 221 221 221 220 220 219 216 216 215 213 214 217 219 218 218 219 219 219 218 215 216 217 217 216 213 214 217 224 228 229 229 227 226 220 215 225 231 232 232 232 236 237 234 229 227 225 222 221 223 227 231
215 213 210 209 208 208 208 209 210 211 211 212 212 215 217 216 214 213 212 212 212 211 209 212 212 213 218 217 213 215 221 221 217 214 217 220 220 220 219 219 219 219 219 218 216 216 216 215 214 215 215 216 219 219 219 218 216 217 218 217 215 215 216 217 222 226 227 227 225 224 219 217 227 231 232 234 234 236 238 236 232 229 228 226 224 222 224 227
214 212 209 207 207 207 208 208 209 210 211 211 212 213 214 214 212 211 211 211 211 211 210 211 213 214 217 218 214 213 219 223 221 222 224 225 221 219 219 218 218 217 217 218 218 217 218 217 217 216 216 216 219 218 218 219 218 218 217 214 213 214 215 215 219 222 225 225 222 223 220 219 229 233 233 236 237 238 239 238 235 231 229 227 225 224 223 223
212 210 207 206 205 205 207 207 208 210 211 211 212 212 213 213 212 212 211 211 210 211 212 211 213 214 215 218 215 212 216 220 219 221 226 225 220 220 220 219 219 219 218 217 217 217 219 219 218 217 218 218 219 218 218 222 222 222 219 213 212 215 215 217 220 221 225 225 221 223 223 221 231 237 237 238 238 240 238 236 235 231 229 228 226 226 227 227
209 206 205 204 204 204 205 206 207 209 211 212 212 212 213 214 216 218 217 214 213 213 213 212 211 212 213 216 215 212 216 220 216 213 216 217 214 216 220 221 222 223 222 219 217 216 217 218 217 217 218 218 219 218 219 223 225 226 223 215 213 216 217 219 222 223 226 226 221 226 228 224 232 239 240 241 240 240 238 235 236 234 230 229 228 230 231 232
205 203 202 202 202 202 204 205 205 207 209 211 213 213 213 213 215 218 218 216 215 215 215 214 211 210 212 214 215 214 215 218 215 207 209 211 209 211 217 222 223 223 223 223 222 220 219 218 216 217 218 218 218 218 218 221 223 226 226 220 214 216 219 222 224 227 230 229 224 228 232 226 230 237 239 242 239 237 238 235 236 238 235 233 231 232 234 235
200 200 199 199 200 200 201 202 203 206 208 210 212 214 213 213 213 215 217 215 214 214 214 214 213 210 211 214 216 215 215 217 218 212 209 210 212 214 216 219 222 222 222 224 225 226 224 220 217 217 218 218 217 218 218 220 222 224 226 223 219 218 221 224 227 230 232 232 227 229 234 229 229 235 236 240 239 233 238 238 236 239 239 237 234 232 234 235
198 198 197 197 197 198 198 198 200 205 208 208 210 212 212 212 212 213 216 217 215 214 213 213 213 209 208 213 216 215 215 218 220 221 218 215 219 224 222 219 220 220 221 222 223 224 224 221 219 219 219 218 218 218 219 220 222 223 225 226 226 223 222 224 227 230 232 233 228 230 236 230 228 233 230 235 240 232 235 241 238 237 237 237 237 233 234 234
196 197 196 195 195 195 195 196 199 202 206 207 207 210 212 212 211 212 214 217 217 214 212 211 211 208 204 207 214 216 215 216 218 222 223 224 228 229 224 220 220 221 220 220 221 222 222 220 219 220 220 220 219 218 219 220 221 222 223 228 230 227 225 224 226 230 232 233 229 232 238 232 225 230 227 230 238 235 232 237 237 239 239 236 236 235 236 236
195 195 195 193 192 193 195 197 199 201 203 206 207 209 211 211 211 211 212 217 218 215 212 211 210 209 205 204 211 215 215 214 214 218 220 221 222 219 218 219 221 221 219 218 219 220 221 220 218 219 220 221 220 219 218 220 222 220 221 226 228 227 227 226 227 231 234 234 231 231 237 235 224 224 227 229 234 234 231 230 231 238 240 234 233 236 237 239
193 193 193 191 189 192 197 199 200 200 199 203 207 208 210 210 210 211 213 217 218 214 213 212 211 211 207 204 209 215 217 215 215 217 217 216 213 211 214 218 220 222 221 220 220 222 223 222 220 219 221 222 222 221 221 221 222 220 221 224 224 225 226 226 228 232 236 237 234 231 236 238 226 216 225 231 231 231 228 227 228 232 236 234 234 239 239 240
191 191 190 188 188 192 196 198 201 199 196 199 203 205 207 208 209 210 214 217 216 215 214 213 212 210 206 204 206 213 219 218 217 216 218 219 214 210 214 217 218 222 224 223 223 222 222 222 221 220 221 222 222 222 222 222 224 223 223 224 223 224 225 227 229 232 238 238 235 233 236 241 232 212 217 230 231 229 225 225 229 230 233 236 236 239 240 239
191 189 188 187 188 193 194 195 199 199 197 197 199 201 202 205 208 208 212 216 214 214 214 213 212 210 206 203 202 206 216 220 219 217 219 223 220 214 215 219 222 224 224 223 223 222 220 220 219 218 218 220 221 222 223 223 224 225 225 225 226 227 227 228 232 234 239 239 236 235 235 241 237 214 209 224 231 230 226 224 230 232 234 236 235 236 238 239
191 188 188 188 189 193 195 194 196 198 199 199 199 200 200 203 209 210 212 214 212 213 213 212 212 212 208 204 202 203 210 218 219 218 220 225 227 224 220 221 224 226 226 222 220 221 220 219 218 216 216 218 219 221 223 224 225 226 226 226 228 231 229 229 232 231 233 235 237 236 235 237 233 211 203 218 228 231 231 227 230 234 234 233 233 235 238 240
192 189 188 190 191 194 197 196 197 198 198 199 200 201 200 200 206 212 215 213 212 214 213 211 211 212 209 206 204 204 206 213 217 219 222 224 228 231 230 228 226 224 225 224 221 220 220 220 219 216 215 217 219 219 221 223 225 226 227 226 226 229 229 228 229 229 228 230 232 233 234 234 227 211 202 213 227 234 234 231 232 236 237 235 235 237 240 244
191 190 188 190 193 195 197 196 197 198 197 199 201 202 201 200 204 211 214 213 213 214 213 211 211 212 210 207 205 204 205 210 213 216 222 224 227 231 233 234 231 228 229 229 226 223 220 219 219 217 214 215 218 219 221 223 225 226 226 226 226 227 228 227 227 228 227 228 228 229 232 232 227 221 211 207 224 237 238 237 237 239 243 242 241 241 243 246
190 190 189 190 193 195 195 194 195 198 197 198 201 203 203 203 205 209 213 214 213 213 213 212 210 211 211 208 206 204 203 208 213 214 217 220 223 226 227 230 230 229 230 232 231 228 222 219 218 218 217 216 217 220 222 225 228 229 229 228 228 228 229 229 230 230 229 231 232 233 235 233 229 229 224 216 225 237 241 243 242 242 243 245 243 242 244 246
187 188 189 188 189 190 189 190 192 196 198 197 199 204 206 206 207 209 212 214 213 212 212 213 211 211 212 209 207 206 204 207 212 215 216 217 219 222 224 225 225 225 226 227 229 229 227 224 221 219 218 218 218 219 221 223 226 228 229 229 229 230 230 232 233 235 235 237 237 237 238 235 231 232 233 229 228 235 241 242 243 244 244 245 244 243 245 248
185 186 188 185 186 186 185 188 190 194 200 200 200 205 209 209 209 210 212 214 214 213 212 212 212 212 212 210 207 205 205 207 210 215 219 220 221 223 224 224 226 226 226 227 227 228 228 228 225 221 219 218 217 218 220 222 224 226 227 229 229 230 231 231 232 234 235 237 236 236 236 237 235 234 235 233 230 233 239 241 242 244 246 248 247 246 248 249
184 185 186 185 187 189 187 189 192 194 198 202 204 207 209 211 211 212 213 215 215 214 212 212 213 213 212 211 207 204 204 207 210 215 220 223 224 225 225 225 226 226 228 229 230 229 230 231 230 225 222 220 218 219 221 223 225 226 227 229 229 229 230 230 231 232 234 235 235 235 235 236 237 235 234 236 234 234 239 241 242 242 245 249 249 249 250 251
183 183 186 188 190 192 192 191 193 194 195 200 206 209 210 211 212 213 214 215 214 214 213 212 213 215 215 212 208 205 205 206 209 215 221 224 226 228 227 226 225 224 225 227 229 229 230 232 232 228 224 221 219 219 221 221 223 226 229 231 231 231 231 231 232 233 234 236 236 236 236 236 236 235 237 241 242 240 241 241 242 243 244 245 246 249 252 254
186 184 187 190 191 192 194 193 193 193 193 197 202 207 211 212 213 214 215 214 213 213 215 214 211 213 217 217 211 206 205 206 208 213 220 225 226 227 227 225 224 224 224 225 226 227 228 230 232 231 226 222 220 219 220 220 221 222 225 228 230 232 234 234 236 237 238 239 240 239 238 236 234 237 243 247 247 246 244 243 243 244 245 246 247 250 253 255
191 188 189 192 191 191 192 191 190 191 193 196 199 202 206 208 210 212 213 213 211 210 213 215 214 213 214 218 215 208 206 207 207 211 218 224 224 223 222 222 222 223 224 225 225 225 226 228 230 231 228 225 221 220 221 222 223 223 224 226 227 229 230 231 232 234 236 238 240 240 239 235 233 239 244 247 248 248 247 247 247 248 250 253 253 253 254 254
193 192 193 195 196 196 195 193 191 191 193 196 197 199 202 203 206 208 209 211 211 209 210 213 216 216 213 214 217 211 206 207 209 211 215 221 224 224 222 222 223 223 223 224 224 222 223 225 228 230 229 228 226 224 223 225 226 228 229 230 230 230 230 229 229 230 232 235 237 240 239 234 234 240 243 246 250 251 253 253 253 252 253 254 255 255 255 254
192 193 195 196 199 200 199 197 197 197 198 199 198 198 200 202 204 206 208 211 211 209 209 210 213 216 215 212 214 212 208 207 210 211 214 219 224 226 225 226 228 227 226 226 226 224 222 222 226 229 230 230 230 228 226 226 227 229 230 232 233 234 233 233 234 234 236 238 239 243 243 238 237 242 245 247 251 253 255 256 256 254 253 253 254 255 255 256
191 193 196 196 200 203 201 198 197 198 201 204 204 205 207 208 207 206 207 211 212 210 210 210 211 214 214 210 209 211 209 209 211 213 215 218 221 224 226 228 231 230 227 226 226 225 223 221 223 227 229 230 230 230 229 228 228 228 228 229 230 233 235 237 240 239 240 242 243 246 247 242 240 245 247 248 251 252 254 256 256 255 254 254 255 254 256 257
192 194 196 198 201 205 206 204 200 200 202 204 207 210 213 214 212 210 210 210 212 212 211 211 211 212 212 208 206 210 212 212 213 214 217 219 220 222 225 228 232 231 226 224 225 225 225 225 223 223 224 225 226 227 227 227 228 228 229 229 230 232 233 234 237 238 238 239 240 244 244 241 240 244 246 246 248 249 251 253 255 256 255 255 255 255 256 257
195 195 196 199 202 205 206 206 204 204 205 206 207 208 211 213 211 211 213 212 211 213 213 212 212 211 208 204 204 208 213 215 217 218 220 221 221 221 223 227 231 230 225 224 225 226 228 230 231 230 229 229 229 229 229 230 230 231 231 232 232 233 234 235 237 238 239 239 240 242 242 241 242 244 246 247 248 248 250 252 255 258 258 257 256 256 258 259
197 198 197 198 200 202 202 202 203 206 208 211 212 210 211 214 213 211 212 211 211 212 213 214 212 208 205 202 202 205 208 212 216 220 222 223 223 223 224 227 231 231 228 225 226 227 228 231 235 238 240 241 243 243 243 240 237 235 234 234 234 234 235 237 238 239 241 242 243 243 243 244 245 246 248 250 251 252 253 255 257 260 261 261 259 259 260 262
195 198 199 199 199 199 199 201 203 206 208 211 214 214 214 215 216 215 214 212 211 210 212 214 214 208 204 202 202 203 203 204 210 215 219 222 223 224 225 227 231 232 230 228 228 229 229 231 235 238 240 242 244 244 244 243 242 242 240 237 236 236 235 234 235 238 241 242 242 243 244 245 245 247 250 252 255 258 259 259 260 262 263 263 261 260 259 259
192 193 197 200 201 201 201 202 203 203 204 207 210 212 214 214 214 216 216 213 212 212 212 213 214 210 206 204 203 203 201 201 205 208 211 215 218 223 226 228 231 232 229 228 228 228 230 232 235 237 238 238 239 240 241 241 242 244 243 240 238 237 236 236 237 239 240 242 244 245 246 246 246 248 252 255 258 260 261 260 260 261 261 259 256 255 253 252
191 190 191 194 198 201 202 201 200 200 201 203 205 206 209 211 212 213 214 213 213 214 214 213 213 211 209 208 206 204 201 201 204 204 206 209 210 217 224 226 228 229 228 228 226 225 227 230 231 234 236 236 237 237 237 237 238 240 241 241 240 240 240 240 241 242 243 245 247 247 248 249 249 251 254 256 257 259 259 259 259 258 257 255 252 251 249 249
190 191 191 192 194 197 201 201 200 200 201 202 204 204 205 208 210 211 213 213 214 214 215 215 213 212 212 210 208 207 204 203 204 202 202 204 205 208 216 222 223 223 224 225 224 222 224 226 228 231 234 236 236 236 235 235 236 236 236 237 238 240 241 241 241 240 242 245 246 246 248 248 248 250 252 252 253 255 256 257 257 256 256 255 254 252 251 250
187 189 191 192 194 195 198 201 201 201 201 202 203 203 204 205 207 209 210 212 214 215 215 215 214 214 214 211 210 210 206 203 204 201 197 198 201 204 210 217 221 222 221 222 224 225 227 228 229 231 233 234 235 235 235 235 235 235 234 234 235 237 237 238 237 237 239 242 243 242 244 246 246 246 248 249 251 252 253 254 254 254 254 255 255 254 252 250
186 188 190 191 193 193 195 197 199 201 202 203 203 203 204 204 204 204 204 207 212 215 215 215 215 215 215 214 213 213 210 206 205 202 195 193 198 203 208 212 218 221 222 222 223 226 229 231 231 231 232 234 235 234 235 235 235 234 233 232 234 236 237 237 238 239 240 241 241 241 244 246 246 244 244 247 249 250 251 251 251 251 252 253 254 253 252 248
Height
5605 5611 5618 5625 5631 5638 5646 5653 5659 5664 5669 5677 5682 5687 5696 5704 5711 5720 5728 5735 5741 5747 5753 5758 5761 5766 5772 5777 5781 5785 5789 5792 5795 5798 5804 5812 5817 5820 5823 5827 5830 5833 5837 5841 5843 5846 5848 5852 5854 5856 5858 5859 5862 5865 5866 5868 5869 5871 5872 5873 5874 5874 5875 5876 5878 5881 5881 5882 5883 5884 5885 5886 5887 5888 5889 5890 5891 5892 5893 5894 5895 5895 5896 5897 5898 5898 5899 5900
5598 5603 5610 5617 5623 5631 5638 5646 5653 5657 5661 5669 5676 5681 5688 5696 5705 5713 5722 5729 5734 5741 5747 5753 5756 5761 5768 5773 5776 5781 5784 5788 5790 5795 5803 5808 5811 5815 5818 5822 5826 5829 5833 5837 5841 5844 5847 5850 5851 5853 5854 5856 5859 5861 5863 5865 5867 5869 5870 5872 5873 5873 5872 5873 5877 5880 5880 5881 5882 5882 5884 5884 5886 5887 5888 5889 5890 5892 5892 5893 5894 5894 5895 5896 5897 5898 5899 5900
5590 5595 5602 5609 5616 5623 5630 5639 5646 5649 5654 5662 5669 5675 5680 5687 5697 5707 5716 5722 5729 5735 5741 5749 5754 5758 5765 5769 5773 5776 5780 5783 5785 5792 5801 5803 5807 5811 5814 5819 5824 5826 5830 5834 5837 5841 5844 5845 5846 5848 5850 5853 5855 5857 5860 5862 5865 5866 5868 5871 5872 5871 5871 5872 5875 5878 5879 5880 5880 5881 5882 5883 5885 5886 5887 5889 5890 5891 5891 5892 5892 5893 5894 5895 5896 5898 5899 5900
5583 5588 5594 5602 5609 5615 5623 5631 5638 5643 5646 5654 5664 5669 5672 5679 5689 5701 5709 5717 5723 5728 5735 5744 5751 5755 5760 5766 5768 5771 5775 5776 5781 5793 5798 5799 5804 5808 5811 5817 5821 5824 5827 5830 5833 5836 5839 5840 5841 5844 5846 5849 5851 5854 5857 5860 5862 5864 5867 5870 5869 5868 5869 5871 5873 5875 5876 5878 5878 5879 5881 5882 5883 5885 5886 5888 5889 5890 5890 5890 5891 5892 5893 5894 5895 5897 5898 5899
5575 5581 5587 5594 5601 5608 5615 5623 5631 5636 5638 5647 5658 5663 5666 5673 5683 5693 5703 5711 5717 5723 5729 5739 5747 5752 5756 5760 5763 5765 5768 5769 5780 5793 5794 5796 5801 5804 5808 5813 5818 5821 5824 5827 5829 5832 5835 5836 5837 5840 5842 5846 5849 5851 5855 5858 5860 5862 5866 5867 5866 5866 5868 5871 5872 5873 5874 5875 5877 5878 5879 5880 5881 5883 5885 5887 5888 5888 5889 5889 5890 5891 5891 5893 5894 5895 5897 5898
5568 5574 5580 5586 5594 5601 5608 5616 5624 5629 5631 5639 5651 5657 5661 5669 5676 5684 5696 5706 5712 5717 5724 5733 5743 5748 5752 5757 5758 5758 5761 5767 5781 5790 5789 5792 5797 5800 5805 5809 5814 5818 5820 5823 5826 5829 5831 5833 5834 5837 5840 5844 5847 5851 5854 5855 5857 5860 5863 5864 5864 5865 5867 5869 5870 5871 5872 5873 5875 5876 5877 5878 5879 5881 5884 5885 5886 5887 5887 5888 5889 5890 5890 5891 5892 5894 5895 5897
5560 5567 5573 5578 5586 5594 5601 5608 5617 5623 5625 5631 5643 5651 5656 5664 5670 5677 5689 5699 5706 5713 5720 5729 5737 5743 5748 5751 5752 5751 5756 5766 5778 5785 5785 5788 5793 5796 5800 5805 5810 5814 5817 5820 5823 5826 5828 5830 5832 5835 5839 5841 5845 5849 5852 5852 5853 5857 5861 5862 5862 5862 5864 5867 5867 5869 5871 5871 5872 5873 5875 5876 5877 5879 5882 5884 5885 5886 5886 5887 5888 5889 5890 5890 5891 5892 5894 5895
5553 5559 5566 5572 5579 5587 5594 5601 5609 5617 5619 5623 5635 5645 5651 5659 5664 5671 5682 5691 5700 5708 5716 5725 5731 5738 5741 5743 5745 5743 5751 5764 5773 5780 5781 5784 5789 5791 5796 5800 5805 5810 5814 5817 5820 5824 5826 5828 5831 5834 5837 5839 5843 5847 5848 5848 5849 5854 5859 5860 5859 5860 5862 5864 5865 5867 5868 5870 5870 5871 5872 5874 5875 5877 5880 5882 5883 5884 5885 5886 5887 5888 5889 5889 5890 5891 5892 5893
5546 5551 5559 5565 5571 5579 5587 5594 5602 5610 5614 5617 5627 5639 5646 5654 5660 5666 5675 5684 5695 5703 5712 5721 5727 5733 5735 5739 5740 5738 5751 5764 5768 5775 5777 5780 5784 5787 5792 5796 5801 5807 5810 5813 5817 5820 5822 5825 5829 5832 5836 5839 5841 5842 5844 5844 5847 5853 5856 5856 5856 5857 5859 5861 5862 5864 5866 5867 5868 5868 5870 5871 5873 5875 5878 5880 5881 5883 5883 5884 5885 5887 5888 5888 5889 5890 5891 5892
5539 5545 5552 5559 5565 5572 5580 5587 5595 5604 5609 5612 5620 5632 5640 5648 5655 5660 5669 5679 5688 5698 5707 5717 5724 5727 5729 5733 5733 5736 5752 5758 5760 5771 5774 5775 5779 5782 5788 5792 5797 5803 5806 5810 5813 5817 5820 5823 5827 5830 5834 5835 5836 5838 5839 5841 5846 5851 5851 5851 5852 5854 5855 5857 5860 5861 5863 5864 5866 5866 5867 5869 5870 5874 5877 5877 5878 5880 5881 5882 5883 5885 5886 5887 5888 5889 5890 5891
5533 5538 5544 5552 5559 5565 5574 5581 5588 5597 5604 5607 5613 5625 5634 5642 5650 5655 5663 5672 5682 5692 5701 5712 5719 5720 5724 5728 5728 5737 5751 5752 5756 5766 5767 5770 5775 5780 5786 5789 5794 5798 5802 5806 5810 5814 5818 5821 5824 5827 5830 5831 5832 5835 5836 5839 5844 5846 5847 5848 5850 5851 5853 5855 5857 5859 5861 5862 5863 5863 5864 5865 5868 5873 5876 5874 5875 5878 5879 5880 5881 5883 5884 5886 5887 5887 5888 5889
5527 5532 5538 5546 5552 5559 5567 5574 5582 5590 5598 5602 5607 5618 5629 5636 5644 5651 5658 5667 5676 5685 5695 5706 5710 5715 5721 5722 5726 5739 5748 5752 5754 5758 5761 5766 5770 5776 5781 5784 5790 5795 5799 5803 5807 5811 5814 5817 5820 5824 5826 5829 5831 5832 5833 5837 5840 5842 5843 5845 5847 5849 5851 5854 5856 5857 5859 5859 5859 5860 5860 5863 5868 5873 5873 5869 5871 5874 5875 5877 5879 5881 5882 5884 5885 5886 5887 5887
5520 5526 5531 5538 5546 5553 5560 5568 5576 5583 5591 5598 5601 5611 5623 5630 5638 5646 5653 5661 5670 5678 5688 5698 5704 5711 5715 5716 5726 5735 5742 5747 5747 5751 5758 5760 5763 5769 5773 5777 5783 5788 5794 5800 5804 5807 5811 5814 5817 5820 5822 5826 5828 5828 5830 5834 5837 5839 5841 5842 5843 5845 5849 5853 5854 5855 5855 5855 5857 5856 5858 5863 5868 5870 5868 5866 5867 5870 5873 5876 5877 5879 5880 5881 5883 5884 5885 5886
5514 5520 5525 5532 5539 5547 5554 5561 5569 5577 5585 5593 5596 5604 5617 5624 5632 5641 5648 5656 5664 5672 5681 5690 5698 5704 5707 5714 5722 5727 5736 5741 5738 5743 5751 5753 5757 5762 5767 5772 5777 5782 5791 5798 5801 5802 5806 5810 5812 5814 5817 5822 5823 5823 5827 5830 5832 5835 5837 5838 5839 5842 5849 5851 5850 5852 5852 5852 5854 5854 5857 5864 5866 5865 5865 5863 5864 5867 5871 5874 5875 5876 5878 5879 5880 5882 5883 5884
5509 5513 5519 5525 5533 5541 5548 5555 5564 5571 5579 5587 5592 5598 5610 5619 5627 5637 5643 5650 5658 5666 5674 5682 5689 5694 5698 5707 5715 5721 5731 5732 5731 5739 5745 5748 5753 5757 5763 5768 5773 5779 5786 5792 5795 5797 5802 5805 5807 5809 5813 5817 5819 5820 5823 5825 5827 5830 5832 5833 5835 5842 5847 5847 5846 5848 5849 5850 5852 5852 5857 5863 5861 5860 5862 5860 5861 5864 5868 5871 5872 5874 5875 5876 5878 5879 5881 5882
5503 5507 5513 5519 5526 5534 5542 5549 5557 5565 5572 5581 5586 5591 5603 5612 5621 5630 5637 5645 5653 5659 5666 5671 5679 5687 5690 5698 5707 5712 5720 5725 5730 5735 5738 5744 5748 5752 5758 5763 5768 5774 5780 5787 5790 5794 5799 5801 5803 5805 5809 5814 5816 5818 5820 5822 5823 5825 5827 5830 5835 5840 5843 5843 5844 5846 5847 5848 5849 5851 5856 5859 5857 5857 5859 5858 5859 5861 5864 5868 5869 5872 5873 5874 5875 5877 5879 5880
5497 5501 5507 5513 5520 5528 5536 5544 5551 5559 5567 5574 5580 5586 5595 5605 5616 5625 5631 5639 5645 5651 5660 5666 5677 5685 5684 5690 5698 5702 5712 5719 5723 5727 5731 5739 5743 5745 5751 5757 5763 5769 5775 5781 5784 5789 5794 5795 5798 5801 5805 5809 5812 5815 5816 5816 5818 5821 5824 5828 5833 5837 5839 5840 5842 5844 5845 5846 5848 5850 5853 5856 5854 5854 5855 5856 5858 5858 5862 5865 5867 5869 5870 5872 5873 5875 5876 5878
5491 5496 5501 5507 5514 5522 5530 5538 5545 5553 5561 5569 5576 5581 5588 5598 5608 5615 5621 5630 5637 5645 5655 5661 5670 5673 5670 5680 5691 5697 5709 5713 5716 5723 5727 5733 5737 5740 5746 5751 5758 5764 5768 5773 5777 5782 5786 5789 5793 5796 5799 5802 5805 5808 5810 5812 5816 5819 5822 5827 5832 5835 5837 5839 5841 5842 5843 5844 5846 5847 5851 5853 5851 5851 5853 5855 5856 5857 5859 5862 5864 5866 5867 5870 5872 5873 5874 5875
5486 5490 5496 5502 5509 5516 5524 5533 5540 5548 5557 5564 5570 5576 5581 5587 5595 5602 5610 5617 5622 5630 5638 5645 5652 5656 5661 5677 5691 5698 5706 5710 5714 5718 5721 5726 5732 5735 5739 5744 5750 5756 5760 5765 5771 5775 5780 5784 5786 5788 5793 5798 5801 5805 5809 5813 5816 5817 5820 5826 5831 5834 5836 5838 5839 5840 5840 5841 5843 5846 5849 5850 5848 5849 5851 5853 5854 5855 5856 5858 5861 5863 5865 5867 5869 5871 5872 5873
5480 5485 5491 5496 5503 5511 5518 5527 5535 5543 5549 5555 5561 5565 5565 5568 5575 5583 5592 5602 5613 5624 5634 5643 5650 5656 5665 5678 5687 5694 5700 5705 5708 5711 5715 5722 5726 5728 5731 5736 5741 5745 5752 5760 5766 5771 5775 5777 5780 5788 5794 5798 5801 5805 5808 5810 5812 5813 5816 5823 5828 5830 5832 5835 5835 5835 5836 5837 5841 5844 5845 5846 5846 5847 5849 5850 5852 5853 5854 5856 5858 5861 5862 5864 5866 5868 5869 5871
5476 5480 5485 5492 5498 5506 5513 5522 5531 5537 5542 5548 5551 5551 5553 5560 5565 5573 5589 5601 5613 5625 5633 5641 5649 5655 5664 5672 5680 5688 5692 5696 5702 5706 5711 5716 5720 5721 5724 5728 5732 5737 5747 5754 5759 5765 5768 5771 5780 5791 5795 5797 5801 5804 5806 5807 5809 5810 5813 5820 5824 5826 5829 5831 5831 5832 5832 5833 5839 5840 5841 5844 5845 5845 5846 5848 5850 5852 5852 5853 5855 5857 5859 5861 5863 5865 5866 5868
5471 5476 5481 5488 5494 5502 5509 5517 5526 5533 5538 5541 5542 5546 5557 5567 5574 5587 5603 5612 5619 5627 5629 5634 5643 5652 5660 5666 5674 5682 5684 5689 5695 5699 5703 5709 5712 5714 5719 5724 5729 5737 5744 5745 5749 5756 5760 5769 5782 5788 5790 5793 5797 5800 5803 5804 5806 5807 5810 5815 5819 5822 5826 5827 5827 5828 5829 5831 5837 5837 5838 5842 5843 5841 5844 5846 5849 5849 5849 5851 5853 5854 5857 5859 5861 5862 5863 5864
5466 5472 5478 5484 5491 5498 5505 5513 5522 5529 5531 5533 5539 5548 5561 5571 5580 5590 5596 5605 5617 5621 5621 5628 5638 5647 5656 5661 5668 5674 5676 5681 5688 5692 5695 5701 5707 5711 5716 5721 5726 5732 5734 5738 5746 5752 5758 5770 5779 5781 5783 5787 5790 5794 5797 5799 5801 5803 5805 5810 5815 5819 5821 5823 5825 5827 5827 5830 5834 5834 5835 5839 5839 5838 5842 5845 5846 5847 5847 5849 5851 5852 5855 5857 5858 5859 5860 5862
5463 5469 5474 5481 5489 5494 5502 5511 5518 5522 5526 5532 5540 5551 5561 5569 5577 5581 5582 5592 5603 5606 5612 5622 5631 5641 5650 5657 5663 5668 5673 5677 5683 5689 5692 5698 5705 5709 5712 5717 5721 5723 5727 5738 5747 5751 5759 5769 5773 5774 5776 5780 5784 5788 5791 5794 5798 5800 5802 5807 5812 5816 5818 5821 5823 5824 5825 5826 5830 5831 5830 5833 5836 5837 5840 5842 5842 5844 5846 5847 5850 5852 5853 5854 5855 5857 5858 5860
5460 5466 5472 5479 5485 5492 5501 5508 5511 5515 5522 5530 5537 5544 5552 5560 5569 5574 5578 5584 5589 5596 5606 5613 5621 5632 5644 5652 5655 5662 5671 5675 5680 5686 5690 5696 5702 5706 5709 5712 5713 5717 5726 5736 5741 5745 5754 5762 5768 5769 5771 5775 5780 5784 5788 5791 5795 5797 5800 5805 5810 5813 5815 5817 5819 5820 5820 5822 5827 5828 5825 5829 5834 5835 5838 5838 5838 5842 5844 5845 5848 5850 5850 5852 5853 5855 5856 5857
5457 5463 5470 5476 5483 5491 5497 5500 5505 5511 5519 5526 5532 5538 5545 5554 5562 5568 5573 5574 5574 5583 5594 5602 5611 5623 5637 5646 5649 5657 5663 5667 5677 5684 5687 5692 5697 5702 5705 5706 5708 5716 5724 5730 5733 5738 5746 5754 5761 5763 5767 5772 5775 5779 5784 5788 5792 5795 5800 5805 5808 5810 5812 5813 5815 5816 5816 5819 5825 5825 5822 5825 5831 5832 5834 5835 5835 5840 5842 5843 5846 5847 5848 5850 5851 5853 5854 5855
5454 5461 5468 5473 5481 5488 5490 5496 5503 5508 5515 5522 5529 5536 5543 5551 5558 5564 5569 5564 5559 5570 5584 5594 5604 5618 5633 5642 5646 5650 5650 5659 5673 5676 5679 5685 5689 5694 5697 5700 5706 5713 5719 5720 5722 5729 5739 5747 5753 5757 5763 5766 5769 5776 5782 5785 5789 5794 5799 5802 5804 5806 5807 5809 5812 5812 5813 5816 5820 5821 5819 5820 5826 5829 5831 5832 5834 5837 5839 5842 5844 5845 5846 5848 5849 5851 5852 5853
5453 5459 5465 5471 5478 5485 5490 5497 5501 5506 5515 5522 5529 5535 5540 5547 5553 5559 5560 5550 5548 5564 5577 5587 5601 5619 5632 5638 5643 5644 5646 5659 5667 5667 5675 5682 5684 5688 5691 5696 5704 5710 5712 5712 5718 5730 5738 5741 5748 5755 5758 5762 5770 5777 5780 5783 5786 5791 5796 5797 5799 5802 5803 5805 5808 5808 5810 5811 5814 5817 5816 5815 5821 5828 5830 5829 5831 5835 5838 5842 5842 5842 5843 5844 5846 5848 5849 5851
5451 5456 5463 5470 5476 5481 5487 5493 5499 5507 5514 5519 5526 5531 5536 5544 5549 5553 5549 5541 5548 5563 5574 5585 5600 5612 5619 5627 5637 5641 5647 5657 5660 5666 5675 5675 5676 5684 5688 5696 5702 5705 5708 5713 5721 5727 5730 5737 5748 5752 5753 5761 5770 5773 5775 5780 5783 5786 5790 5792 5795 5797 5798 5801 5802 5804 5805 5805 5808 5814 5814 5812 5816 5825 5827 5826 5830 5834 5838 5839 5838 5839 5840 5841 5844 5845 5846 5848
5449 5455 5461 5467 5471 5475 5480 5487 5496 5505 5510 5515 5521 5527 5534 5538 5540 5541 5534 5533 5548 5560 5569 5582 5591 5599 5607 5617 5628 5637 5643 5647 5653 5663 5667 5664 5671 5678 5684 5693 5697 5698 5703 5710 5714 5716 5724 5734 5737 5740 5747 5757 5762 5765 5770 5774 5776 5779 5783 5787 5790 5792 5794 5797 5798 5801 5800 5798 5804 5810 5811 5810 5810 5818 5825 5827 5830 5834 5835 5835 5836 5837 5838 5839 5841 5842 5843 5844
5448 5454 5459 5464 5468 5472 5477 5483 5490 5498 5505 5511 5517 5523 5528 5530 5530 5528 5523 5534 5552 5556 5561 5574 5582 5591 5601 5609 5619 5630 5637 5640 5646 5653 5654 5657 5664 5667 5672 5679 5682 5689 5695 5698 5702 5710 5719 5721 5723 5734 5744 5748 5751 5756 5763 5766 5769 5773 5777 5782 5786 5787 5790 5793 5794 5796 5794 5794 5800 5805 5807 5806 5804 5813 5824 5828 5829 5831 5832 5833 5834 5834 5835 5837 5838 5839 5840 5842
5447 5452 5458 5463 5467 5471 5476 5483 5490 5495 5500 5507 5513 5517 5520 5522 5521 5519 5524 5541 5551 5547 5554 5566 5574 5586 5597 5606 5617 5626 5633 5636 5640 5645 5648 5653 5655 5656 5662 5666 5672 5681 5684 5688 5697 5703 5709 5714 5723 5733 5736 5738 5743 5748 5753 5757 5762 5766 5770 5777 5781 5782 5785 5787 5787 5788 5790 5792 5796 5799 5800 5800 5802 5811 5823 5827 5827 5828 5829 5830 5831 5831 5833 5835 5836 5837 5838 5839
5444 5450 5454 5459 5464 5469 5475 5483 5488 5492 5497 5503 5508 5511 5514 5514 5512 5516 5527 5538 5540 5544 5556 5565 5574 5585 5594 5600 5608 5618 5628 5632 5634 5640 5646 5650 5652 5655 5660 5664 5674 5681 5684 5691 5697 5698 5703 5710 5717 5720 5723 5730 5735 5739 5745 5750 5756 5760 5766 5772 5775 5776 5777 5779 5780 5783 5786 5787 5790 5794 5796 5796 5800 5808 5817 5824 5826 5825 5825 5827 5828 5830 5831 5832 5834 5835 5835 5837
5442 5447 5450 5455 5462 5467 5473 5480 5485 5490 5495 5499 5502 5505 5507 5507 5511 5520 5528 5532 5538 5547 5556 5563 5574 5582 5586 5593 5602 5612 5621 5624 5629 5636 5641 5643 5645 5649 5654 5659 5667 5676 5683 5689 5691 5693 5697 5699 5703 5712 5721 5727 5730 5738 5747 5753 5757 5761 5765 5768 5768 5769 5771 5774 5778 5780 5784 5785 5787 5790 5792 5794 5799 5803 5811 5821 5823 5821 5823 5825 5826 5827 5828 5830 5831 5832 5833 5834
5440 5444 5449 5454 5458 5463 5470 5477 5483 5489 5491 5494 5498 5499 5499 5503 5511 5518 5523 5529 5537 5545 5551 5560 5571 5575 5578 5588 5599 5608 5614 5618 5625 5630 5633 5635 5637 5642 5649 5652 5659 5667 5672 5677 5683 5691 5695 5695 5704 5714 5719 5724 5730 5738 5743 5745 5748 5753 5757 5757 5759 5765 5771 5774 5777 5779 5782 5783 5783 5786 5787 5791 5797 5800 5806 5816 5819 5819 5820 5821 5822 5824 5825 5826 5828 5829 5830 5831
5436 5441 5446 5451 5454 5460 5466 5473 5480 5485 5487 5491 5493 5494 5497 5504 5511 5516 5522 5528 5535 5543 5550 5557 5562 5565 5571 5580 5589 5599 5608 5614 5620 5622 5625 5630 5635 5640 5646 5651 5657 5663 5668 5675 5682 5689 5693 5698 5707 5711 5713 5719 5726 5731 5733 5735 5740 5745 5745 5746 5755 5764 5766 5768 5771 5773 5775 5775 5776 5779 5782 5786 5792 5795 5801 5809 5814 5816 5817 5818 5820 5821 5821 5823 5825 5827 5827 5828
5433 5438 5444 5448 5453 5458 5463 5470 5476 5481 5485 5488 5489 5493 5499 5506 5510 5515 5521 5527 5534 5541 5547 5551 5553 5557 5563 5571 5578 5588 5599 5607 5613 5616 5618 5623 5629 5635 5643 5649 5655 5660 5668 5677 5682 5688 5695 5701 5704 5706 5710 5718 5724 5726 5728 5732 5735 5736 5736 5743 5753 5756 5755 5760 5763 5764 5767 5767 5770 5774 5777 5782 5786 5789 5795 5803 5810 5814 5814 5815 5817 5818 5819 5820 5822 5822 5823 5824
5431 5437 5442 5446 5451 5456 5461 5467 5472 5477 5482 5485 5487 5493 5498 5503 5508 5513 5518 5524 5531 5536 5540 5545 5550 5554 5560 5566 5573 5582 5592 5598 5604 5609 5613 5617 5622 5630 5639 5646 5651 5657 5667 5673 5676 5684 5692 5694 5695 5699 5705 5712 5717 5717 5717 5721 5725 5730 5736 5743 5747 5745 5748 5754 5756 5758 5762 5763 5766 5771 5773 5777 5781 5786 5792 5799 5806 5810 5810 5812 5813 5815 5816 5817 5818 5818 5819 5820
5429 5433 5437 5442 5447 5453 5458 5463 5469 5474 5479 5480 5484 5489 5494 5499 5505 5510 5516 5522 5527 5532 5536 5541 5547 5553 5558 5564 5572 5580 5586 5592 5599 5606 5609 5612 5619 5628 5637 5644 5649 5655 5662 5666 5670 5677 5684 5686 5688 5694 5699 5702 5705 5704 5703 5709 5716 5723 5729 5734 5736 5739 5745 5751 5753 5756 5760 5760 5764 5767 5768 5772 5779 5784 5789 5795 5801 5804 5805 5807 5809 5811 5812 5813 5814 5815 5816 5817
5426 5430 5434 5438 5444 5450 5455 5461 5465 5469 5473 5477 5482 5487 5492 5497 5502 5507 5513 5518 5523 5529 5533 5539 5545 5550 5556 5562 5570 5577 5583 5590 5597 5602 5605 5610 5618 5626 5634 5640 5645 5652 5658 5661 5665 5671 5675 5678 5682 5688 5690 5690 5691 5693 5699 5707 5711 5715 5720 5724 5727 5730 5735 5742 5746 5749 5753 5755 5758 5760 5761 5769 5777 5781 5786 5791 5795 5797 5800 5803 5804 5806 5807 5808 5809 5810 5812 5813
5423 5428 5432 5436 5441 5446 5451 5456 5461 5465 5469 5475 5480 5486 5491 5495 5499 5504 5510 5514 5520 5525 5531 5537 5543 5548 5554 5560 5566 5572 5579 5584 5591 5596 5600 5606 5612 5618 5627 5636 5643 5649 5652 5653 5656 5661 5666 5672 5678 5679 5678 5682 5689 5698 5705 5709 5710 5715 5720 5721 5723 5724 5728 5733 5736 5741 5745 5748 5752 5754 5755 5764 5773 5777 5781 5786 5790 5793 5796 5797 5799 5801 5802 5803 5804 5805 5806 5807
5419 5424 5429 5434 5438 5442 5446 5452 5457 5462 5467 5472 5478 5484 5489 5493 5497 5501 5507 5511 5516 5522 5528 5534 5539 5544 5550 5556 5562 5568 5574 5579 5585 5590 5594 5600 5605 5615 5628 5637 5643 5646 5646 5649 5655 5662 5667 5670 5671 5671 5675 5684 5692 5697 5701 5704 5708 5712 5712 5714 5719 5720 5724 5729 5734 5743 5747 5747 5753 5754 5752 5759 5770 5774 5778 5783 5787 5789 5791 5791 5793 5795 5796 5798 5799 5800 5801 5802
5416 5421 5426 5431 5435 5439 5444 5449 5453 5458 5464 5470 5476 5481 5485 5490 5495 5498 5503 5507 5512 5518 5523 5527 5533 5538 5544 5551 5559 5566 5572 5577 5581 5586 5593 5599 5605 5617 5628 5633 5638 5640 5640 5645 5652 5655 5658 5659 5660 5666 5673 5679 5682 5687 5694 5698 5699 5697 5696 5703 5709 5714 5723 5731 5736 5744 5745 5746 5752 5751 5748 5757 5767 5770 5774 5779 5782 5784 5785 5786 5787 5788 5790 5792 5793 5795 5796 5797
5411 5417 5423 5428 5433 5437 5442 5448 5453 5458 5463 5467 5473 5478 5483 5487 5492 5496 5501 5504 5509 5514 5518 5522 5528 5534 5542 5549 5557 5564 5570 5574 5578 5584 5591 5595 5603 5615 5621 5625 5630 5631 5633 5640 5644 5645 5649 5651 5653 5659 5663 5664 5665 5672 5678 5680 5682 5686 5691 5698 5704 5712 5721 5724 5729 5735 5735 5740 5746 5743 5743 5755 5762 5764 5767 5771 5775 5777 5779 5780 5780 5782 5785 5787 5788 5790 5791 5792
5408 5413 5419 5425 5430 5435 5441 5448 5454 5458 5462 5467 5471 5477 5481 5485 5490 5495 5499 5502 5506 5511 5515 5520 5525 5532 5540 5546 5553 5562 5567 5571 5576 5580 5585 5591 5599 5608 5611 5616 5622 5624 5632 5640 5640 5642 5645 5643 5645 5650 5650 5650 5653 5660 5668 5673 5679 5684 5689 5696 5704 5711 5713 5717 5724 5724 5725 5736 5738 5734 5742 5753 5756 5758 5760 5763 5767 5770 5773 5776 5776 5777 5779 5781 5783 5785 5786 5788
5407 5411 5415 5420 5426 5432 5439 5446 5451 5456 5461 5466 5471 5475 5479 5483 5488 5493 5497 5500 5504 5508 5512 5517 5522 5528 5534 5539 5547 5555 5560 5566 5571 5576 5582 5588 5595 5601 5604 5611 5617 5622 5630 5632 5629 5633 5635 5634 5640 5645 5646 5652 5659 5667 5675 5679 5678 5680 5686 5694 5701 5705 5708 5713 5713 5711 5721 5733 5727 5727 5743 5750 5750 5753 5754 5756 5760 5763 5768 5773 5773 5772 5774 5776 5778 5780 5781 5782
5406 5411 5416 5421 5426 5431 5437 5443 5448 5454 5460 5464 5469 5473 5477 5481 5486 5490 5494 5498 5501 5504 5508 5512 5517 5523 5528 5533 5540 5547 5552 5558 5564 5570 5576 5582 5590 5596 5599 5606 5612 5618 5623 5622 5620 5626 5627 5628 5636 5641 5644 5654 5659 5662 5669 5672 5672 5678 5685 5690 5694 5698 5700 5699 5698 5706 5720 5718 5711 5724 5741 5741 5744 5748 5747 5751 5757 5757 5762 5767 5767 5768 5769 5770 5772 5773 5774 5775
5404 5411 5418 5424 5429 5433 5438 5444 5448 5453 5457 5461 5466 5470 5474 5478 5482 5486 5490 5494 5498 5501 5504 5508 5513 5518 5524 5529 5535 5541 5547 5551 5557 5562 5568 5574 5583 5589 5594 5600 5606 5611 5614 5611 5612 5620 5621 5624 5634 5638 5642 5649 5650 5653 5662 5666 5668 5674 5678 5681 5687 5689 5688 5689 5695 5708 5713 5704 5708 5730 5736 5731 5739 5744 5743 5750 5752 5751 5756 5760 5761 5763 5762 5763 5764 5765 5767 5768
5405 5411 5416 5422 5429 5435 5439 5443 5447 5451 5455 5459 5463 5467 5472 5476 5479 5483 5486 5490 5494 5497 5501 5505 5509 5514 5519 5524 5529 5535 5540 5544 5551 5557 5562 5568 5576 5582 5587 5593 5597 5603 5606 5603 5606 5614 5616 5620 5629 5632 5635 5640 5640 5647 5657 5658 5660 5665 5668 5673 5678 5679 5682 5688 5696 5706 5706 5700 5710 5726 5724 5722 5736 5742 5742 5746 5744 5743 5749 5752 5754 5756 5753 5753 5756 5757 5760 5761
5407 5412 5416 5421 5427 5432 5437 5440 5444 5448 5452 5457 5461 5465 5468 5472 5475 5479 5482 5486 5489 5493 5497 5501 5506 5510 5515 5519 5524 5529 5534 5541 5548 5554 5559 5564 5570 5576 5581 5583 5587 5594 5596 5596 5600 5605 5608 5615 5622 5625 5628 5629 5631 5641 5649 5648 5651 5657 5660 5664 5668 5671 5676 5681 5688 5697 5697 5694 5705 5716 5714 5717 5732 5738 5736 5737 5737 5738 5742 5743 5746 5747 5745 5745 5748 5751 5754 5755
5406 5412 5417 5422 5425 5429 5434 5438 5442 5446 5450 5454 5457 5461 5464 5467 5470 5474 5478 5482 5485 5489 5493 5497 5502 5506 5510 5515 5519 5524 5531 5538 5545 5551 5554 5557 5564 5571 5575 5577 5582 5586 5588 5590 5593 5596 5601 5609 5614 5617 5617 5617 5625 5636 5639 5640 5645 5647 5648 5653 5658 5662 5667 5673 5680 5688 5689 5691 5700 5705 5702 5711 5728 5732 5728 5730 5732 5732 5734 5736 5738 5739 5739 5739 5740 5743 5747 5749
5404 5408 5413 5418 5423 5427 5431 5435 5440 5444 5448 5451 5455 5458 5460 5463 5466 5470 5475 5479 5483 5486 5489 5493 5497 5502 5507 5511 5515 5520 5527 5534 5541 5546 5548 5550 5557 5564 5568 5572 5577 5579 5581 5584 5586 5589 5596 5602 5605 5608 5609 5613 5623 5630 5633 5635 5630 5624 5631 5646 5655 5660 5666 5671 5676 5682 5685 5687 5690 5692 5698 5714 5724 5723 5722 5724 5724 5724 5727 5729 5731 5733 5733 5732 5732 5735 5738 5740